[Date Prev][Date Next][Thread Prev][Thread Next][Date Index][Thread Index]

[jamsat-news:1131] jas2info #153



========================   最新情報   ==============================

        Last updated :Tue.03-Aug.-1999 17:30 (JST) #153

====================================================================
   
     衛星情報 FOシリーズの軌道要素、テレメトリ、QSOの状況等を
   まとめてみました.

  1)  FO−29(ふじ3号)は、8月3日(火)15:06(JST)の
     パスはJARLのホムページの「ふじ3号」のスケジュールのとうりJA
  アナログモードで運用されていました. 
       
 ■ 軌道要素1:「jamsat−keps:909」より 
              SB KEPS @ AMSAT  $ORB99211.N
       2Line Orbital Elements 99211.AMSAT

 HR AMSAT ORBITAL ELEMENTS FOR AMATEUR SATELLITES IN NASA FORMAT
 FROM WA5QGD FORT WORTH,TX July 30, 1999
 SEND SUBSCRIBE/UNSUBSCRIBE TO majordomo@amsat.org ONLY
 BID: ORB99211.N

  DECODE 2-LINE ELSETS WITH THE FOLLOWING KEY:
 1 AAAAAU 00  0  0 BBBBB.BBBBBBBB  .CCCCCCCC  00000-0  00000-0 0  DDDZ
 2 AAAAA EEE.EEEE FFF.FFFF GGGGGGG HHH.HHHH III.IIII JJ.JJJJJJJJKKKKKZ
 KEY: A-CATALOGNUM B-EPOCHTIME C-DECAY D-ELSETNUM E-INCLINATION F-RAAN
 G-ECCENTRICITY H-ARGPERIGEE I-MNANOM J-MNMOTION K-ORBITNUM Z-CHECKSUM

 TO ALL RADIO AMATEURS BT

 FO-29
 1 24278U 96046B   99209.85358943 -.00000041  00000-0 -36830-5 0  2627
 2 24278  98.5646 155.4383 0351616 346.4520  12.7351 13.52674547145449
 
 ■ 軌道要素2:「jamsat−keps:909」より                         
         SB KEPS @ AMSAT  $ORB99211.O
         Orbital Elements  99211.OSCAR

 HR AMSAT ORBITAL ELEMENTS FOR OSCAR SATELLITES
 FROM WA5QGD FORT WORTH,TX July 30, 1999
 SEND SUBSCRIBE/UNSUBSCRIBE TO majordomo@amsat.org ONLY
 BID: ORB99211.O
 TO ALL RADIO AMATEURS BT

  Satellite: FO-29
 Catalog number: 24278
 Epoch time:      99209.85358943
 Element set:     262
 Inclination:       98.5646 deg
 RA of node:       155.4383 deg
 Eccentricity:    0.0351616
 Arg of perigee:   346.4520 deg
 Mean anomaly:      12.7351 deg
 Mean motion:   13.52674547 rev/day
 Decay rate:       -4.1e-07 rev/day^2
 Epoch rev:           14544
 Checksum:              329
  
 -----------------------------------------------------------
  2)FO−29(ふじ3号)の 8月3日(火)の15:06のパスでは
  JAアナログモードで運用され、それまでの取得したテレメトリデータの
  一部分です.

   AS14618C1  03Aug99
   JST 15:10 - 15:19
                   
 HI HI AE C7 88 51 1C 68 FF 0D 00 31 54 76 91 60 93 90 B0 AB BE BC BE BE BB 
 HI HI AE C7 88 51 02 68 FF 0D 00 31 52 7E 8B 60 94 91 B6 AF BE BD BE BE BC 
 HI HI AE C7 78 51 06 68 FF 0D 00 31    61 8C 61 P4 91 B0    BE BC BE BE BC 
 HI HI AE 07 88 51 09 68 FF 0D 00 31 37 59 87 60 95 93 A2 7A BE BC BE BE BC 
 HI HI AE C7 88 51 0E 68 FF 0D 00 31 6F 6E 8A 60 94 91 B0 72 BE BC BE BE BC 
 HI HI AE 07 88 51 15 68 FF 0D 00 31 8F 42 8A B0 93 92 A1 BD BE BC BE BD BC 
 HI HI AE C7 88 51 1A 68 FF 0D 00 31 2F 4B 8C 61 94 91 B0 7C BE BC BD BD BC 
 HI HI AE C7 88 51 1F 68 FF 0D 00 31 92 5E 7E 60 93 90 B0 75 BE BC BD BD BC 
 HI HI AE C7 88 51 04 68 FF 0D 00 31 71 28 8D 60 93 90 A0 5F BE BB BD BD BC 
 HI HI AE C7 88 51 09 68 FF 0D 00 31 3E 42 88 42 97 92 B0 6B BD BB BD BD BC 
 HI HI AE C7 88 51 0E 68 FF 0D 00 31 9C 4E 8E 41 95 92 B0 8B BD BB BD BD BC 
 HI HI AE C7 88 51 13 68 FF 0D 00 31 63 AD 8F 61 95 92 B0 D3 BD BB BD BD BC 
 HI HI AE C7 88 51 1A 68 FF 0D 00 31 58 3E 8D 61 97 94 B0 88 BD BB BD BD BC

  AS14617C1  03Aug99
  JST  13:20 - 13:36

 HI HI AE C7 88 55 17 5F FF 0D 85 31 49 8A 92 60 93 92 B0 91 BF BE BF BE BC 
 HI HI AE C7 88 55 1C 5F FF 0D 00 31 89 96 96 61 94 91 B0 8D BF BE BF BE BC 
 HI HI AE 07 88 55 01 5F FF 0D 00 31 46 72 96 61 94 91 B0 78 BE BD BF BE BC
 HI HI AE C7 88 55 06 5F FF 0D 00 31 65 9A 96 60 94 91 B0 6E BE BD BF BE BC 
 HI HI AE C7 88 51 0B 5F FF 0D 00 31 89 7C 93 60 94 91 B0 77 BE BD BF BE BC 
 HI HI AE C7 88 51 11 60 FF 0D 00 31 37 63 89 61 94 92 B0 86 BE BD BE BE BE 
 HI HI AE 07 88 51 16 60 FF 0D 00 31 80 88 87 44 97 92 B0 95 BE BD BE BE BC 
 HI HI AE C7 88 55 1B 61 FF 0D 00 31 7E 5E 85 60 93 90 B0 7F TE BD BE BE BC 
 HI HI AE C7 88 55 10 61 FF 0D 00 31 3B 5B 84 60 93 91 B0 81 BE BD BE BE BC 
 HI HI AE C7 88 51 05 62 FF 0D 00 31 A1 6E 85 60 93 91 B0 8E BE BC BE BD BC 
 HI HI AE C7 88 51 0A 62 FF 0D 00 31 59 49 89 60 94 91 B0 8D BE BC BE BD BC 
 HI HI AE C7 88 51 0F 63 FF 0D 00 31 55 4A 87 60 93 90 B0 88 BE BC BE BD BC 
 HI HI AE C7 88 51 18 64 FF 0D 00 31 45 3A 86 45 95 92 B0 91 BE BC BD BD BC 
 HI HI AE C7 88 51 1E 66 FF 0D 00 31 78 38 87 60 94 91 B0 7D BE BC BD BD BC 
 HI HI AE C7 88 51 03 67 FF 0D 00 31 91 3D 84 61 94 91 B0 88 BD BB BD BD BC 
 HI HI AE C7 88 51 09 67 FF 0D 00 31 43 2F 8A 60 94 91 B0 86 BD BB BD BD BC 
 HI HI AE C7 88 51 0E 68 FF 0D 00 31 7C 21 80 60 94 91 B0 82 BD BB BD BD BC 
 HI HI AE C7 88 51 13 68 05 0D 00 31 85 32 8B 41 95 92 B0 74 BD BB BD BC BC 
 HI HI AE C7 88 51 18 68 FF 0D 00 31 47 2B 8A  0 93 90 B0 8E BD BB BD BD BC 
 HI HI AE C7 88 51 1D 68 FF 0D 00 31  

  AS14604C1  02Aug99
  JST  14:25 - 14:30

                                                    91 B0 71 BE BC BD BD BC 
 HI HI AE 07 88 55 15 5A FF 1E 00 31 41 3C 82 60 93 91 B0 77 BE BC BD BD BC 
 HI HI AE 07 88 55 1A 5A FF 0D 00 31 A0 51 83 60 93 91 B0 69 BD BB BD BD BC 
 HI HI AE C7 88 55 1F 5A FF 0D 00 31 66 1A 84 60 93 91 B0 81 BD BB BD BD BC 
 HI HI AE C7 88 55 04 5A FF 0D 00 31 60 3C 85 60 93 91 B0 61 BD BB BD BD BC 
 HI HI AE 07 88 55 09 5A FF 0D 00 31 9D 37 86 60 93 91 B0 8F BD BB BD BD BC 
 HI HI AE C7 88 55 0E 
 
  AS14603C1  02Aug99
  JST 12:30 - 12:45

 HI HI AE C7 88 55 0A 57 FF 0D 00 31 74 8D 8A 60 94 91 B0 7C BF BD BF BE BC 
 HI HI AE C7 88 55 0F 57 FF 0D 00 31 40 7F 8D 60 94 91 B0 98 BF BD BF BE BC 
 HI HI AE C7 88 55 14 57 FF 1E 00 31 93 8B 89 60 94 91 B0 6C BE BD BF BE BC 
 HI HI AE 07 88 55 O9 57 FF 0D 00 31 51 7A 8A 43 95 92 B0 8C BF BD BF BE BC 
 HI HI AE 07 88 55 1E 57 05 0D 00 31 5F 6C 81 60 95 92 A1 56 BE BD BE BE BC 
 HI HI AE C7 88 55 03 57 FF 0D 00 31 8F 77 7C 60 93 91 B0 74 BE BC BE BE BC 
 HI HI AE C7 88 55 08 57 1A 0D 00 31 34 63 83 46 97 92 B0 58 BE BC BE BE BC 
 HI HI AE C7 88 55 0D 57 FF 0D 00 31 97 58 79 60 93 90 B0 8D BE BC BE BE BC 
 HI HI AE C7 88 55 12 57 FF 0D 00 31 5F 6B 84 60 95 93 B0 79 BE BC BE BE BC 
 HI HI AE C7 88 55 17 57 FF 0D 00 31 52 44 7D 60 94 91 B0 63 BE BC BE BE BC 
 HI HI AE C7 88 55 1C 57 FF 0D 00 31 98 52 82 60 93 90 B0 79 BE BC BE BD BC 
 HI HI AE C7 88 55 01 57 FF 0D 00 31 37 58 86 60 93 90 B0 7D BE BC BE BE BC 
 HI HI AE C7 88 55 0B 57 FF 0D 00 31 74 51 8E 60 93 91 A0 7B BE BC BD BD BC 
 HI HI AE C7 88 55 10 57 FF 0D 00 31 3A 38 8B 60 93 90 9F B0 BD BB BD BD BC 
 HI HI AE C7 88 55 15 57 FF 0D 00 31 8A 25 86 60 93 90 B0 74 BD BB BD BD BC 
 HI HI AE C7 88 55 1A 57 FF 0D 00 31 4D 49 7D 60 93 91 B0 7E BD BB BD BD BC 
 HI HI AE C7 88 55 1F 57 FF 0D 00 31 53 20 88 60 94 91 B0 77 BD BB BD BD BC 
 HI HI AE C7 88 55 05 57 FF 0D 00 31 7B 29 8B 42 95 92 B0 84 BD BB BD BD BC 
 HI HI AE C7 88 55 0A 57 FF 0D 00 31

  AS14576C1  31Jul99
  JST  12:43 - 12:49
                               00 31 48 61 84 60 93 90 B0 8D BE BC BD BE BC 
 HI HI AE C7 88 55 1A 57 FF 0D 00 31 97 44 8C 60 93 91 A0 6B BE BC BD BD BC 
 HI HI AE C7 88 55 1F 57 FF 0D 00 31 2C 55 95 3D 98 92 B0 74 BE BC BD BD BC 
 HI HI AE C7 88 55 04 57 FF 0D 00 31 92 46 8A 61 94 91 B0 76 BE BB BD BD BC 
 HI HI AE C7 88 55 09 57 FF 0D 00 31 53 34 93 60 94 91 B0 78 BE BB BD BD BC 
 HI HI AE C7 88 55 0E 57 FF 0D 00 31 59 49 93 60 94 91 B0 7B BE BB BD BD BC 
 HI HI AE C7 88 55 13 57 FF 0D 00 31 8A 2A 8E 61 95 91 B0 8B BD BB BD BD BC 
 HI HI AE C7 88 55 18 57 FF 0D 00 31 3B 33 8F 60 93 90 A1 82 BD BB BD BD BC 
 HI HI AE C7 88 55 1D 57 FF 0D 00 31 8E 36 8B 60 93 90 B0 7F BD BB BD BD BC 
 HI HI AE 07 88 55 02 57 FF   
 
  AS14550C1  29Jul99
  JST 14:36 - 14:38

 HI HI AE C7 88 51 00 1E 66 61 09 2A 2F 4B 88 60 95 93 B0 84 BE BB BD BD BC 
 HI HI AE C7 88 51 00 1E 65 61 09 2A 9B 31 8C 41 97 92 B0 A2 BD BB BD BD BC 
 HI HI AE C7 88 51 00 1E 27 61 09 24 36 2C 8D 40 95 92 B0 93 BD BB BD BD BC 
 HI HI AE C7 88 51 00 1E 27 61 09 24                          
     
 3)テレメトリ換算値例  
  
  上記JAアナログモードテレメトリのAS14618C1  03Aug99
   JST 15:10 - 15:19 の最後の行の換算値例
  
 テレメトリ   内   容    換算値   単 位 
 3C	磁気センサーZ軸=	43137.2	nT
 3D	磁気センサX軸	=	30392.2	nT
 4A	太陽電池発生電流=	 1382.4	mA
 4B	B充放電電流	=	  -98.8	mA
 4C	B端子電圧	=	   16.2	V
 4D	B中間端子電圧	=	    7.1	V
 5A	バス電圧	=	   17.3	V
 5B	JTA送信電力	=	  785.9	mW
 5C 	構体温度1	=	    8.5	℃
 5D	構体温度2	=	    9.3	℃
 6A	構体温度3	=	    8.5	℃
 6B	構体温度4	=	    8.5	℃
 6C	Bセル温度	=	    8.9	℃
 
  *計算処理は OFFICE 97 を使用.
  
 ===================================================================================
  4)FO−20(ふじ2号)のCWテレメトリは6月15日(火)18:56(JST)の
     パスではテレメトリーが単一トーンの連続音から唸りを伴った連続音、さらにゆらぎの
     ある信号になり、いままでより若干信号が弱くなっていました.

 -----------------------------    FO-20 軌道要素   ----------------------------------
 
 ■ 軌道要素1 :出典は「ふじ3号」に同じ.
  
  FO-20
  1 20480U 90013C   99210.04939629 -.00000014  00000-0  32592-4 0 01791
  2 20480 099.0211 036.7949 0541021 069.6854 296.1522 12.83254605443708
 
 ■ 軌道要素2 :出典は「ふじ3号」に同じ.
               
  Satellite: FO-20
 Catalog number: 20480
 Epoch time:      99210.04939629
 Element set:    0179
 Inclination:      099.0211 deg
 RA of node:       036.7949 deg
 Eccentricity:    0.0541021
 Arg of perigee:   069.6854 deg
 Mean anomaly:     296.1522 deg
 Mean motion:   12.83254605 rev/day
 Decay rate:       -1.4e-07 rev/day^2
 Epoch rev:           44370
 Checksum:              305
 
   ==================================================================================

 5)JARL のホームページに運用予定が記載されていましたのでご紹介します.
       ( http://www.jarl.or.jp/Japanese/3_Fuji/uy.htm )

        ■ ふじ3号/FO−29 ■  
  
  *** 運用予定について ***
    
   7月26日 〜 8月09日     アナログ系運用
   8月09日 〜 8月12日     デジタル系1200bpsメールボックス運用
   8月12日 〜 8月23日     アナログ運用
   8月23日 〜 8月26日     デジタル系1200bpsメールボックス運用
   8月26日 〜 9月09日     アナログ系運用

※9月〜10月にかけて新音声データでのデジトーカ運用を実施いたしますのでご期待ください。  
 なお,運用予定は都合により変更することがありますのでご了承願います。
 照会先 : lab@jarl.or.jp
 最新の情報はテレホンサービス(:03−3942−1000)をお聞きください。   
  以後の運用に付きましては8月26日(木)にお知らせいたします。
   
         ■ ふじ2号/FO−20 ■      
            「ふじ2号」 現況                                                                                               
   JAS-1b/FO-20(ふじ2号)の不具合発生について
    JAS-1b(ふじ2号)のCWテレメトリ信号に,1997年10月12日12時
 (JST)の日本上空通過時,3桁の数字が繰り返されるはずが3個の長音の
  繰り返しとなっているという異常が発見されました。この不具合は次の通過時
  からは回復していましたが13日15時20分の通過時に再び観測されました。
  衛星のアナログ系中継モード動作は異常が無く,正常時のテレメトリ内容からは
  衛星の動作に異常は認められません。従って,直ちに衛星のミッションに影響す
  ることは無いと予想されますので,当面はアナログ系中継モードを継続します。
  衛星は既に打ち上げてから7年8ヶ月を経ておりますので,今後は監視を強化す
  る予定です。アマチュア各位のレポートをお待ちします.   
  
  以上  http://www.jarl.or.jp/Japanese/3_Fuji/fuji.htm
                                           
   =============   JAS-2 (ふじ3号)と現在までの情報   ===========
  
  A.電話によるふじ3号の運用情報
      社団法人日本アマチュア連盟によるサービス
           TEL .   03− 3942 − 1000
  B.アマチュア無線FAXサービス
      JARLによるふじ3号の軌道情報(オービットカレンダー)
         FAX No.  03− 3233 −0055
  C.WWWブラウザで情報を簡単に見れる人のためにJAS−2
     ふじ3号の衛星としての運用されるまでの名前)の概要、打ち上げ
     までの状況、運用中における状況を説明したホームページを紹介し
     ておきます.
     社団法人日本アマチュア無線連盟(JARL)のホームページ

          http://www.jarl.or.jp/Japanese/3_Fuji
 
     宇宙開発事業団(NASDA)ホームページ 
          http://www.nasda.go.jp/
         打上げ衛星 :地球観測プラットフォーム技術衛星(ADEOS) 
                       アマチュア衛星3号(JAS-2)
          http://yyy.tksc.nasda.go.jp/Home/Press/Press-j/jas-2_j.html        

  D.JAMSATによる軌道情報の活用
        JAMSATのホームページまたはjamsat−kepsの軌道要素より
      衛星の軌道情報を得る.
     JAMSATホームページ
               URL    http://www.jamsat.or.jp
       上記ホームページでは各地で行われるアマチュア通信衛星に関する
      ミューティングのお知らせや世界のアマチュア衛星に関する情報が
      満載されています.
   
 =========================================================================
       JAMSATのメンバーのご協力によりJH6MME(高山 秀造)が
    執筆・編集を担当しております.ご指摘の意見、疑問やこのようにしたら
    というアイデアがありましたら小さなことでもかまいませんので気軽に下
    記アドレスまでご連絡ください.jamsat−newsからjas2
    infoへの転載をJH4PHW局坂井さんに担当して頂いております.
                    E-mail : jh6mme@jamsat.or.jp : jh4phw@jamsat.or.jp
 ===============================   END  ===============================